www.pogodaiklimat.ru

Погода и климат >> Архив погоды >> Индия >> Тамилнад >> Тиручирапалли


ПОГОДА в Тиручирапалли

  • Прогноз погоды в Тиручирапалли
  • Монитор погоды в Тиручирапалли

АРХИВ ПОГОДЫ в Тиручирапалли

Время (UTC), дата Ветер
(напр.,м/с)
 
Видим.   Явления Облачность Т
(С)
Тd
(С)
f
(%)
Тe
(С)
Тes
(С)
Комфортность P
(гПа)
Po
(гПа)
Тmin
(С)
Tmax
(С)
R
(мм)
R24
(мм)
S
(см)
06 15.09 З 3 4000 м мгла 8/3 480 м
[Sc Ac trans Ci fib]
+30.6 +24.3 69 +43 +50 опасность
перегрева
1009.5 999.7
09 15.09 З 3 4000 м 6/5 540 м
[Cu Sc Ci fib]
+34.8 +22.7 50 +45 +50 опасность
перегрева
1005.6 995.9
12 15.09 Ю 4 4000 м 6/4 540 м
[Cb cap Ac trans Ci fib]
+33.2 +23.8 58 +45 +45 опасность
перегрева
1005.5 995.8 +35.2
15 15.09 Ю 4 2000 м слаб. морось {гроза, дождь} 9/5 450 м
[Cb cap As op Ci fib]
+25.0 +22.9 88 +33 +33 очень
душно
1009.5 999.5 9
18 15.09 З 1 4000 м дымка {гроза, дождь} 9/4 450 м
[Cb cap As op Ci fib]
+24.0 +23.1 95 +32 +32 очень
душно
1010.0 999.9 15
21 15.09 З 3 4000 м дымка 8/4 480 м
[Sc Ac trans Ci fib]
+25.2 +23.7 91 +34 +34 очень
душно
1007.5 997.5 15
00 16.09 З 3 4000 м дымка 8/4 540 м
[Sc Ac trans Ci fib]
+25.8 +23.2 86 +35 +35 очень
душно
1007.3 997.3 15
03 16.09 З 3 4000 м 9/4 540 м
[Sc Ac trans Ci fib]
+27.0 +24.1 84 +37 +40 очень
душно
1008.8 998.9 +23.6 +35.2 15
06 16.09 З 6 10 км 5/3 540 м
[Sc Ac trans Ci fib]
+32.2 +22.6 57 +42 +46 опасность
перегрева
1007.5 997.8
09 16.09 З 5 10 км 6/4 540 м
[Sc Ci fib]
+34.2 +21.9 49 +43 +47 опасность
перегрева
1004.7 995.0
12 16.09 З 4 4000 м слаб. морось 9/5 480 м
[Cb cap Ac trans Ci fib]
+31.8 +22.8 59 +42 +42 опасность
перегрева
1004.2 994.4 +34.8 0.0
15 16.09 Ю 4 2000 м гроза, ливневой дождь {морось} 9/5 480 м
[Cb cap As op Ci fib]
+26.4 +24.4 89 +37 +37 очень
душно
1007.4 997.5 2
18 16.09 ЮЗ 2 2000 м слаб. дождь {гроза} 9/5 480 м
[Cb cap As op Ci fib]
+25.4 +24.2 93 +35 +35 очень
душно
1008.9 998.9 6
21 16.09 З 5 2000 м {дождь, морось} 9/4 480 м
[Sc As op Ci fib]
+24.6 +23.4 93 +33 +33 очень
душно
1006.3 996.3 10
00 17.09 З 4 2000 м слаб. морось {дождь} 9/4 480 м
[Sc As op Ci fib]
+24.4 +23.2 93 +33 +33 очень
душно
1005.8 995.8 11
03 17.09 З 4 4000 м дымка 9/4 480 м
[Sc As op Ci fib]
+26.4 +23.5 84 +36 +37 очень
душно
1007.8 997.9 +24.0 +34.8 11
06 17.09 З 6 4000 м мгла 6/3 480 м
[Sc Ac trans Ci fib]
+31.2 +22.8 61 +41 +45 опасность
перегрева
1007.0 997.2
09 17.09 З 4 4000 м мгла 9/4 480 м
[Sc diur, vesp Ac trans Ci fib]
+33.6 +22.2 51 +42 +46 опасность
перегрева
1004.5 994.8
12 17.09 З 3 4000 м мгла 9/4 480 м
[Cu med, cong Ac trans Ci fib]
+32.6 +23.4 58 +43 +43 опасность
перегрева
1003.2 993.5 +33.5
15 17.09 Ю 2 4000 м мгла 9/3 480 м
[Sc Ac trans Ci fib]
+29.6 +23.8 71 +41 +41 опасность
перегрева
1005.9 996.0
18 17.09 ЮВ 2 2000 м слаб. морось {гроза, дождь} 10/5 480 м
[Cb cap As op]
+24.6 +23.7 95 +33 +33 очень
душно
1007.2 997.2 49
21 17.09 З 2 2000 м дымка 9/4 480 м
[Sc As op Ci fib]
+24.6 +23.7 95 +33 +33 очень
душно
1005.4 995.4 50
00 18.09 З 3 2000 м дымка 9/4 480 м
[Sc As op Ci fib]
+24.6 +24.3 98 +34 +34 очень
душно
1005.9 995.9 50
03 18.09 З 2 4000 м дымка 10/4 300 м
[St As op]
+25.8 +24.6 93 +36 +37 очень
душно
1007.9 997.9 +23.4 +33.5 50
06 18.09 З 3 4000 м мгла 9/4 480 м
[Sc Ac trans Ci fib]
+29.8 +24.1 72 +42 +48 опасность
перегрева
1008.1 998.2
09 18.09 Ю 2 4000 м мгла 8/5 480 м
[Cu Sc Ac trans Ci fib]
+32.6 +23.4 58 +43 +48 опасность
перегрева
1005.1 995.4
12 18.09 Ю 3 4000 м мгла 8/5 480 м
[Cb cap Ac trans Ci fib]
+32.2 +24.2 63 +44 +45 опасность
перегрева
1004.5 994.8 +33.1
15 18.09 Ю 4 4000 м зарница 8/5 480 м
[Cb cap Ac trans Ci fib]
+29.4 +25.4 79 +43 +43 опасность
перегрева
1006.7 996.8
18 18.09 З 2 4000 м мгла 6/3 480 м
[Sc Ac trans Ci fib]
+28.0 +25.2 85 +41 +41 опасность
перегрева
1007.3 997.4
21 18.09 З 2 4000 м мгла 8/4 480 м
[Sc Ac trans Ci fib]
+27.4 +24.5 84 +39 +39 очень
душно
1006.2 996.3
00 19.09 ЮВ 1 4000 м дымка 6/3 480 м
[Sc Ac trans Ci fib]
+27.0 +24.7 87 +38 +38 очень
душно
1006.7 996.8
03 19.09 З 3 4000 м мгла 8/3 480 м
[Sc Ac trans Ci fib]
+28.6 +23.1 72 +38 +41 очень
душно
1008.8 998.9 +26.0 +33.1
06 19.09 З 6 4000 м мгла 8/3 480 м
[Sc Ac trans Ci fib]
+31.6 +23.2 61 +42 +46 опасность
перегрева
1008.3 998.5
09 19.09 З 2 4000 м мгла 8/4 480 м
[Cb cap Ac trans Ci fib]
+34.0 +23.4 54 +45 +51 опасность
перегрева
1004.9 995.2
12 19.09 Ю 5 4000 м мгла 9/5 480 м
[Cb cap Ac trans Ci fib]
+32.6 +23.4 58 +43 +43 опасность
перегрева
1005.2 995.5 +34.0
15 19.09 Ю 4 2000 м гроза с градом {морось} 10/5 450 м
[Cb cap Ac trans Ci fib]
+25.0 +24.1 95 +34 +34 очень
душно
1008.8 998.8 26
18 19.09 ЮЗ 2 2000 м слаб. дождь {гроза} 9/4 480 м
[Sc Ac trans Ci fib]
+25.2 +24.9 98 +36 +36 очень
душно
1008.2 998.2 29
21 19.09 Ю 2 4000 м дымка 8/4 480 м
[Sc Ac trans Ci fib]
+25.0 +24.4 96 +35 +35 очень
душно
1007.0 997.0 29
00 20.09 Ю 1 4000 м дымка 8/3 540 м
[Sc Ac trans Ci fib]
+25.6 +23.6 89 +35 +35 очень
душно
1007.2 997.2 29
03 20.09 З 1 4000 м 8/3 540 м
[Sc Ac trans Ci fib]
+27.0 +25.3 90 +39 +43 очень
душно
1009.0 999.1 +24.6 +34.0 29
06 20.09 З 3 10 км 8/4 540 м
[Sc Ac trans Ci fib]
+31.8 +23.4 61 +43 +49 опасность
перегрева
1008.5 998.7
09 20.09 СЗ 2 10 км 6/4 540 м
[Sc Ci fib]
+34.2 +23.9 55 +46 +54 опасность
перегрева
1005.1 995.4
12 20.09 В 3 4000 м мгла 9/5 480 м
[Cb cap Ac trans Ci fib]
+33.4 +23.3 56 +44 +44 опасность
перегрева
1004.9 995.2 +34.9
15 20.09 Ю 4 2000 м слаб. дождь {морось} 8/5 480 м
[Cb cap Ac trans Ci fib]
+30.0 +25.8 78 +45 +45 опасность
перегрева
1007.6 997.8 0.0
18 20.09 Ю 3 4000 м мгла 6/4 480 м
[Cb cap Ac trans Ci fib]
+27.8 +25.2 86 +40 +40 очень
душно
1008.4 998.5 2
21 20.09 Ю 2 4000 м мгла 6/3 480 м
[Sc Ac trans Ci fib]
+26.4 +22.4 79 +35 +35 очень
душно
1007.2 997.3 2
00 21.09 Ю 2 4000 м зарница 6/4 540 м
[Cb cap Ac trans Ci fib]
+26.2 +24.8 92 +37 +37 очень
душно
1007.2 997.3 2
03 21.09 З 3 4000 м дымка 9/4 540 м
[Cb cap As op Ci fib]
+27.0 +24.4 86 +38 +40 очень
душно
1008.6 998.7 +25.8 +34.9 2
06 21.09 З 3 4000 м мгла 8/3 540 м
[Sc Ac trans Ci fib]
+30.6 +23.4 65 +41 +49 опасность
перегрева
1007.3 997.5
09 21.09 ЮЗ 2 4000 м мгла 8/3 480 м
[Sc diur, vesp Ac trans Ci fib]
+32.6 +23.7 60 +44 +51 опасность
перегрева
1004.4 994.7
12 21.09 ЮВ 2 4000 м мгла 8/3 480 м
[Cb calv Ac trans Ci fib]
+32.4 +23.2 58 +43 +43 опасность
перегрева
1004.0 994.3 +33.7
15 21.09 ЮВ 4 4000 м зарница 6/4 480 м
[Cb cap Ac trans Ci fib]
+29.6 +25.1 77 +43 +43 опасность
перегрева
1006.8 996.9
18 21.09 Ю 3 4000 м мгла 6/4 480 м
[Cb cap Ac trans Ci fib]
+28.0 +24.9 83 +40 +40 очень
душно
1007.6 997.7
21 21.09 З 2 4000 м мгла 6/3 480 м
[Sc Ac trans Ci fib]
+27.4 +24.8 86 +39 +39 очень
душно
1006.6 996.7
00 22.09 З 2 4000 м мгла 6/3 480 м
[Sc Ac trans Ci fib]
+26.6 +24.3 87 +37 +37 очень
душно
1006.4 996.5
03 22.09 З 4 4000 м мгла 6/3 480 м
[Sc Ac trans Ci fib]
+28.6 +23.7 75 +39 +42 очень
душно
1008.5 998.6 +25.8 +33.7

 

Местоположение метеостанции Тиручирапалли (Тамилнад, Индия): широта 10.77 долгота 78.72 высота над уровнем моря 88 м.

В архиве по умолчанию представлена погода в Тиручирапалли за последнюю неделю. Архивные данные за месяц целиком и за предыдущие месяцы, начиная с января 2011 года, Вы можете получить, выбрав интересующий диапазон дат из раскрывающегося списка и нажав кнопку "Ввод!".


*Определитесь, кто Вы:
робот инопланетянин человек

Внимание! Время в таблицах - всемирное. Для получения местного времени необходимо прибавить поправку, которая равна 5.5 ч.

Смотрите также архив погоды в соседних городах и на ближайших метеорологических станциях:

Погода в Кудумиянмалае (Тамилнад, Индия) (42 км)
Погода в Танджавуре (Тамилнад, Индия) (45 км)
Погода в Парамати (Тамилнад, Индия) (73 км)
Погода в Адирампаттинаме (Тамилнад, Индия) (87 км)
Погода в Салеме (Тамилнад, Индия) (115 км)
Погода в Мадурае (Тамилнад, Индия) (115 км)
Погода в Тонди (Тамилнад, Индия) (121 км)
Погода в Карайкале (Пондичерри, Индия) (122 км)
Погода в Нагапаттинаме (Тамилнад, Индия) (123 км)
Погода в Йеркоде (Тамилнад, Индия) (124 км)

Пояснения к столбцам:

Ветер - указаны скорость ветра в м/с - средняя за 10 мин, порывы в срок и между сроками (в фигурных скобках) и направление, откуда дует ветер: С - северный, СВ - северо-восточный, В - восточный, ЮВ - юго-восточный, Ю - южный, ЮЗ - юго-западный, З - западный, СЗ - северо-западный.
Видимость - горизонтальная дальность видимости в метрах или километрах. При видимости от 1 до 10 км при отсутствии осадков обычно наблюдается дымка, при ухудшении видимости до 1 км и менее - туман. В сухую погоду видимость может ухудшаться дымом, пылью или мглою.
Явления - указаны атмосферные явления, наблюдавшиеся в срок или в последний час перед сроком; фигурными скобками обозначены явления, наблюдавшиеся между сроками (за 1-3 часа до срока); квадратными скобками обозначены град или гололедные отложения с указанием их диаметра в мм.
Облачность - указаны через наклонную черту общая и нижняя облачность в баллах и высота нижней границы облаков в метрах; квадратными скобками обозначены формы облаков: Ci - перистые, Cs - перисто-слоистые, Cc - перисто-кучевые, Ac - высококучевые, As - высокослоистые, Sc - слоисто-кучевые, Ns - слоисто-дождевые, Cu - кучевые, Cb - кучево-дождевые. Подробнее классификацию облаков см. в Атласе облаков (PDF).
T - Температура воздуха - температура, измеренная на высоте 2 м над землей.
Td - Температура точки росы - температура, при понижении до которой содержащийся в воздухе водяной пар достигнет насыщения.
f - Относительная влажность воздуха - влажноcть воздуха, измеренная на высоте 2 м над землей.
Te - Эффективная температура - температура, которую ощущает одетый по сезону человек в тени. Характеристика душности погоды. При расчете учитывается влияние влажности воздуха и скорости ветра на теплоощущения человека.
Tes - Эффективная температура на солнце - температура, которую ощущает человек, с поправкой на солнечный нагрев. Характеристика знойности погоды. Зависит от высоты солнца над горизонтом, облачности и скорости ветра. Ночью, в пасмурную погоду, а также при ветре 12 м/с и более поправка равна нулю.
P - Атмосферное давление - приведенное к уровню моря атмосферное давление.
Po - Атмосферное давление - измеренное на уровне метеостанции атмосферное давление.
Tmin - Минимальная температура - минимум температуры воздуха на высоте 2 м над землей.
Tmax - Максимальная температура - максимум температуры воздуха на высоте 2 м над землей.
R - Количество осадков - Количество выпавших осадков за период времени, мм. При наведении курсора мыши на число - период времени, за который выпало указанное количество осадков.
R24 - Количество осадков - Количество выпавших осадков за 24 часа, мм.
S - Снежный покров - Высота снежного покрова, см. При наведении курсора мыши на число - состояние снежного покрова и степень покрытия местности в баллах.